Location: Chamerau
(49.1969°N, 12.7525°E)
Time: 02:33:52
(UTC+00:00)

KORONAS-FOTON - Pass Details

Date: 18 September 2020
Orbit: 506 x 531 km, 82.4° (Epoch: 24 October)

Event Time Altitude Azimuth Distance (km) Brightness Sun altitude
Rises 19:19:54 0° 349° (NNW) 2,688 8.0 -20.4°
Reaches altitude 10° 19:22:03 10° 348° (NNW) 1,794 7.1 -20.7°
Maximum altitude 19:26:00 80° 263° (W) 548 3.9 -21.3°
Enters shadow 19:26:46 56° 188° (S) 642 4.0 -21.4°
